Location: Bishopstone
(51.0167°N, 1.9000°W)
Time: 20:22:19
(UTC+00:00)

Cosmos 2227 Rocket - Pass Details

Date: 16 September 2019
Orbit: 837 x 847 km, 71.0° (Epoch: 21 October)

Event Time Altitude Azimuth Distance (km) Brightness Sun altitude
Exits shadow 19:39:02 18° 110° (ESE) 1,956 3.4 -12.9°
Maximum altitude 19:39:49 19° 99° (E) 1,931 3.5 -13.0°
Drops below altitude 10° 19:43:35 10° 57° (ENE) 2,472 4.3 -13.6°
Sets 19:46:45 0° 40° (NE) 3,414 5.2 -14.0°
